Retour au catalogue

FENGYUN 1C DEB

ActifSSO
NORAD 30237·DEBRIS·🇨🇳 China

Lancé May 10, 1999 depuis Taiyuan Satellite Launch Center

Loading…

Prochains Passages (prochaines 24 heures)

TLE

FraisSource: Space-Track

Époque: Sep 14, 2026, 07:23 UTC

1 30237U 99025WW  26257.30796926  .00003875  00000-0  11377-2 0  9998
2 30237  98.8340  14.8204 0014555 203.8833 183.1926 14.44337123 16699

Suivez FENGYUN 1C DEB en temps réel avec AllMySat

Download on the App Store